Weather History for Denali Park, AK

Change the Weather History Date:

Thursday, May 9, 2013

  Actual Average Record
Temperature  
Mean Temperature 34 °F -  
Max Temperature 48 °F 50 °F 68 °F (1981)
Min Temperature 19 °F 26 °F 2 °F (1964)
Degree Days  
Heating Degree Days 32    
Moisture  
Dew Point 19 °F    
Average Humidity 51    
Maximum Humidity 86    
Minimum Humidity 27    
Precipitation  
Precipitation 0.00 in - - ()
Sea Level Pressure  
Sea Level Pressure 30.26 in    
Wind  
Wind Speed 2 mph (South)    
Max Wind Speed 12 mph    
Max Gust Speed 21 mph    
Visibility 10 miles    
Events      
Averages and records for this station are not official NWS values.
T = Trace of Precipitation, MM = Missing Value Source: NWS Daily Summary

Daily Weather History Graph

Daily Weather History Graph

Search for Another Location

Airport:

Trip Planner

Search our weather history database for the weather conditions in past years. The results will help you decide how hot, cold, wet, or windy it might be!

Date:

Astronomy

May. 09, 2013 Rise Set
Actual Time 5:02 AM AKDT 10:43 PM AKDT
Civil Twilight 3:42 AM AKDT 12:05 AM AKDT
Nautical Twilight Sun does not rise Sun does not rise
Astronomical Twilight Sun does not rise Sun does not rise
Moon 5:06 AM AKDT (5/9) 10:47 PM AKDT (5/9)
Length of Visible Light 20h 22m
Length of Day
17h 40m
Waning Crescent, 0% of the Moon is Illuminated
May 9
Waning Crescent
May 9
New
May 17
First Quarter
May 24
Full
May 31
Last Quarter

Hourly Weather History & Observations

Time (AKDT) Temp. Windchill Dew Point Humidity Pressure Visibility Wind Dir Wind Speed Gust Speed Precip Events Conditions
12:16 AM 28.4 °F - 21.2 °F 74% 30.30 in 10.0 mi Calm Calm - N/A   Clear
12:36 AM 28.4 °F - 21.2 °F 74% 30.30 in 10.0 mi Calm Calm - N/A   Clear
12:56 AM 28.4 °F - 19.4 °F 69% 30.31 in 10.0 mi Calm Calm - N/A   Clear
1:16 AM 26.6 °F 22.6 °F 19.4 °F 74% 30.31 in 10.0 mi SW 3.5 mph - N/A   Clear
1:36 AM 26.6 °F - 19.4 °F 74% 30.31 in 10.0 mi Calm Calm - N/A   Clear
1:56 AM 26.6 °F - 19.4 °F 74% 30.31 in 10.0 mi Calm Calm - N/A   Clear
2:16 AM 26.6 °F - 19.4 °F 74% 30.31 in 10.0 mi Calm Calm - N/A   Clear
2:36 AM 24.8 °F - 19.4 °F 80% 30.31 in 10.0 mi Calm Calm - N/A   Clear
2:56 AM 24.8 °F - 19.4 °F 80% 30.32 in 10.0 mi Calm Calm - N/A   Clear
3:16 AM 24.8 °F - 17.6 °F 74% 30.31 in 10.0 mi Calm Calm - N/A   Clear
3:36 AM 23.0 °F - 17.6 °F 80% 30.32 in 10.0 mi Calm Calm - N/A   Clear
3:56 AM 23.0 °F - 17.6 °F 80% 30.32 in 10.0 mi Calm Calm - N/A   Clear
4:16 AM 21.2 °F - 17.6 °F 86% 30.31 in 10.0 mi Calm Calm - N/A   Clear
4:36 AM 21.2 °F - 17.6 °F 86% 30.31 in 10.0 mi Calm Calm - N/A   Clear
4:56 AM 21.2 °F - 17.6 °F 86% 30.31 in 10.0 mi Calm Calm - N/A   Clear
5:16 AM 21.2 °F 16.4 °F 17.6 °F 86% 30.31 in 10.0 mi SSW 3.5 mph - N/A   Clear
5:36 AM 19.4 °F - 15.8 °F 86% 30.31 in 10.0 mi Calm Calm - N/A   Clear
5:56 AM 19.4 °F - 15.8 °F 86% 30.30 in 10.0 mi Calm Calm - N/A   Clear
6:16 AM 19.4 °F - 15.8 °F 86% 30.30 in 10.0 mi Calm Calm - N/A   Clear
6:36 AM 19.4 °F - 15.8 °F 86% 30.30 in 10.0 mi Calm Calm - N/A   Clear
6:56 AM 19.4 °F - 15.8 °F 86% 30.30 in 10.0 mi Calm Calm - N/A   Clear
7:16 AM 23.0 °F - 17.6 °F 80% 30.30 in 10.0 mi Calm Calm - N/A   Clear
7:36 AM 24.8 °F - 17.6 °F 74% 30.29 in 10.0 mi Calm Calm - N/A   Clear
7:56 AM 26.6 °F - 17.6 °F 69% 30.29 in 10.0 mi Calm Calm - N/A   Clear
8:16 AM 28.4 °F - 17.6 °F 64% 30.29 in 10.0 mi Calm Calm - N/A   Clear
8:36 AM 30.2 °F 26.7 °F 17.6 °F 60% 30.29 in 10.0 mi SSE 3.5 mph - N/A   Clear
8:56 AM 32.0 °F - 17.6 °F 55% 30.28 in 10.0 mi Calm Calm - N/A   Clear
9:16 AM 33.8 °F 30.8 °F 15.8 °F 48% 30.28 in 10.0 mi SE 3.5 mph - N/A   Clear
9:36 AM 35.6 °F - 15.8 °F 44% 30.27 in 10.0 mi Calm Calm - N/A   Clear
9:56 AM 37.4 °F 33.8 °F 14.0 °F 38% 30.27 in 10.0 mi SSW 4.6 mph - N/A   Clear
10:16 AM 39.2 °F - 14.0 °F 36% 30.26 in 10.0 mi Calm Calm - N/A   Clear
10:36 AM 42.8 °F - 14.0 °F 31% 30.26 in 10.0 mi Calm Calm - N/A   Clear
10:56 AM 44.6 °F 42.2 °F 15.8 °F 31% 30.25 in 10.0 mi South 4.6 mph - N/A   Clear
11:16 AM 46.4 °F 43.5 °F 15.8 °F 29% 30.24 in 10.0 mi ESE 5.8 mph - N/A   Clear
11:36 AM 46.4 °F 42.9 °F 15.8 °F 29% 30.24 in 10.0 mi SSE 6.9 mph - N/A   Clear
11:56 AM 46.4 °F 44.3 °F 15.8 °F 29% 30.23 in 10.0 mi SE 4.6 mph - N/A   Clear
12:16 PM 48.2 °F - 15.8 °F 27% 30.23 in 10.0 mi South 6.9 mph - N/A   Clear
12:36 PM 48.2 °F - 17.6 °F 30% 30.23 in 10.0 mi South 5.8 mph - N/A   Clear
12:56 PM 48.2 °F - 17.6 °F 30% 30.24 in 10.0 mi South 11.5 mph - N/A   Clear
1:16 PM 48.2 °F - 17.6 °F 30% 30.23 in 10.0 mi South 6.9 mph - N/A   Clear
1:36 PM 48.2 °F - 17.6 °F 30% 30.23 in 10.0 mi South 8.1 mph 16.1 mph N/A   Clear
1:56 PM 48.2 °F - 19.4 °F 32% 30.24 in 10.0 mi South 6.9 mph 17.3 mph N/A   Clear
2:16 PM 48.2 °F - 19.4 °F 32% 30.24 in 10.0 mi South 8.1 mph 20.7 mph N/A   Clear
2:36 PM 48.2 °F - 19.4 °F 32% 30.23 in 10.0 mi South 6.9 mph 17.3 mph N/A   Clear
2:56 PM 48.2 °F - 19.4 °F 32% 30.23 in 10.0 mi South 11.5 mph 17.3 mph N/A   Clear
3:16 PM 48.2 °F - 19.4 °F 32% 30.23 in 10.0 mi SSW 11.5 mph 16.1 mph N/A   Clear
3:36 PM 48.2 °F - 19.4 °F 32% 30.23 in 10.0 mi SSE 8.1 mph 16.1 mph N/A   Clear
3:56 PM 48.2 °F - 19.4 °F 32% 30.22 in 10.0 mi South 8.1 mph 16.1 mph N/A   Clear
4:16 PM 48.2 °F - 19.4 °F 32% 30.22 in 10.0 mi South 6.9 mph - N/A   Clear
4:36 PM 48.2 °F - 19.4 °F 32% 30.22 in 10.0 mi South 5.8 mph - N/A   Clear
4:56 PM 48.2 °F - 19.4 °F 32% 30.21 in 10.0 mi South 6.9 mph - N/A   Clear
5:16 PM 48.2 °F - 19.4 °F 32% 30.21 in 10.0 mi SSE 9.2 mph 16.1 mph N/A   Clear
5:56 PM 48.2 °F - 19.4 °F 32% 30.21 in 10.0 mi South 8.1 mph 18.4 mph N/A   Clear
6:16 PM 48.2 °F - 19.4 °F 32% 30.20 in 10.0 mi South 9.2 mph 16.1 mph N/A   Clear
6:36 PM 46.4 °F 42.4 °F 19.4 °F 34% 30.21 in 10.0 mi South 8.1 mph - N/A   Clear
6:56 PM 46.4 °F 44.3 °F 19.4 °F 34% 30.22 in 10.0 mi South 4.6 mph - N/A   Mostly Cloudy
7:16 PM 46.4 °F 42.9 °F 19.4 °F 34% 30.22 in 10.0 mi South 6.9 mph - N/A   Overcast
7:56 PM 46.4 °F 42.4 °F 21.2 °F 37% 30.22 in 10.0 mi South 8.1 mph - N/A   Overcast
8:16 PM 46.4 °F 42.9 °F 21.2 °F 37% 30.22 in 10.0 mi South 6.9 mph - N/A   Overcast
8:36 PM 46.4 °F 42.9 °F 21.2 °F 37% 30.22 in 10.0 mi South 6.9 mph - N/A   Overcast
8:56 PM 46.4 °F 43.5 °F 21.2 °F 37% 30.22 in 10.0 mi South 5.8 mph - N/A   Overcast
9:16 PM 44.6 °F 40.2 °F 21.2 °F 39% 30.21 in 10.0 mi South 8.1 mph - N/A   Overcast
9:36 PM 44.6 °F 42.2 °F 21.2 °F 39% 30.21 in 10.0 mi South 4.6 mph - N/A   Overcast
9:56 PM 44.6 °F 41.4 °F 21.2 °F 39% 30.22 in 10.0 mi South 5.8 mph - N/A   Overcast
10:16 PM 44.6 °F 43.1 °F 23.0 °F 43% 30.22 in 10.0 mi South 3.5 mph - N/A   Overcast
10:36 PM 44.6 °F 43.1 °F 23.0 °F 43% 30.22 in 10.0 mi South 3.5 mph - N/A   Overcast
10:56 PM 42.8 °F 41.1 °F 23.0 °F 46% 30.22 in 10.0 mi SSE 3.5 mph - N/A   Overcast
11:16 PM 42.8 °F - 23.0 °F 46% 30.22 in 10.0 mi Calm Calm - N/A   Overcast
11:36 PM 42.8 °F - 23.0 °F 46% 30.23 in 10.0 mi Calm Calm - N/A   Overcast
11:56 PM 41.0 °F - 24.8 °F 53% 30.23 in 10.0 mi Calm Calm - N/A   Mostly Cloudy